Regional Weather Roundup
Issued by NWS

Home | Current Version | Previous Version | Text Only | Print | Product List | Glossary On
Versions: 1 2 3 4 5 6 7 8 9 10 11 12 13 14 15 16 17 18 19 20 21 22 23 24 25 26 27 28 29 30 31 32 33 34 35 36 37 38 39 40 41 42 43 44 45 46 47 48 49 50
000
ASUS45 KSLC 250310
RWRUT

UTAH REGIONAL WEATHER ROUNDUP
NATIONAL WEATHER SERVICE SALT LAKE CITY UT
800 PM MST SAT JAN 24 2015

UTZ001>011-023>025-250400-

NORTHERN UTAH

CITY           SKY/WX    TMP DP  RH WIND       PRES   REMARKS
BRIGHAM CITY   CLOUDY    34  27  75 NW3       30.49R
HILL AFB       CLOUDY    35  21  57 N5        30.45S WCI  31
LOGAN          CLOUDY    32  27  81 N5        30.49R WCI  27
OGDEN          CLOUDY    32  26  78 N3        30.46S
PROVO AIRPORT  MOCLDY    34  23  64 CALM      30.47S
SALT LAKE CITY CLOUDY    36  26  67 N5        30.47R WCI  32
VERNAL         PTCLDY    26  17  68 NW5       30.35R WCI  20
WENDOVER       MOCLDY    34  25  69 CALM      30.46S
HEBER CITY     CLOUDY    32  23  69 CALM      30.43S
WEST JORDAN    CLOUDY    36  25  64 CALM      30.46S

$$

UTZ012>022-026-027-250400-

SOUTHERN/CENTRAL UTAH

CITY           SKY/WX    TMP DP  RH WIND       PRES   REMARKS
BLANDING       CLEAR     35  17  47 CALM      30.36S
BRYCE CANYON   CLEAR     29  19  66 NW8       30.39S WCI  21
CEDAR CITY     CLEAR     33  22  63 N10       30.37F WCI  25
DELTA          PTCLDY    36  26  67 E3        30.45S
MILFORD        MOCLDY    38  23  55 N13       30.42R WCI  30
MOAB/CYNLANDS  CLEAR     31  21  66 SW3       30.34R
PRICE          CLEAR     32  16  51 E5        30.32S WCI  27
ST GEORGE      CLEAR     54  21  28 N9        30.29R

$$

REGIONAL REPORTS     COLORADO/ARIZONA

CITY           SKY/WX    TMP DP  RH WIND       PRES   REMARKS
CRAIG, CO      CLOUDY    27  19  72 CALM      30.33R
GRAND JUNCTION PTCLDY    28  18  66 E3        30.35F
RIFLE          MOCLDY    27  18  69 S3        30.36S
MONTROSE       PTCLDY    25  13  60 S5        30.37S WCI  19
CORTEZ         CLEAR     29  15  56 VRB3      30.27F
PAGE, AZ       NOT AVBL
GRAND CANYON   PTCLDY    27  14  58 CALM      30.32R
KINGMAN        CLEAR     45  20  36 E8        30.23R
FLAGSTAFF      PTCLDY    35  11  36 E12       30.29R WCI  27

$$

REGIONAL REPORTS    NEVADA/IDAHO/WYOMING

CITY           SKY/WX    TMP DP  RH WIND       PRES   REMARKS
LAS VEGAS, NV  CLEAR     59  21  23 SW9       30.19R
ELY            CLEAR     36  21  54 NW6       30.43R WCI  31
ELKO           CLEAR     36  28  73 CALM      30.43S
POCATELLO, ID  CLOUDY    31  30  96 NE3       30.44F
BURLEY         MOCLDY    34  30  85 N3        30.42R
EVANSTON, WY   PTCLDY    31  25  78 S8        30.42R WCI  23
ROCK SPRINGS   PTCLDY    33  27  78 W31G38    30.31R WCI  19
KEMMERER       CLOUDY    30  28  93 W22       30.38R WCI  17

$$


USA.gov is the U.S. government's official web portal to all federal, state and local government web resources and services.